| time (UTC) | temp C | wind direction | speed KPH | gust KPH | rain 1hr cm | rain 24hr cm | rain mn cm | humidity % | barometer mb |
| 20260508054704 | 10 | 246 | 0.0 | 0.0 | 0.00 | 0.00 | 0.00 | 20 | 1021.0 |
| 20260508054202 | 10 | 255 | 0.0 | 1.6 | 0.00 | 0.00 | 0.00 | 21 | 1020.9 |
| 20260508053658 | 10 | 71 | 1.6 | 1.6 | 0.00 | 0.00 | 0.00 | 21 | 1020.9 |
| 20260508053156 | 10 | 267 | 0.0 | 3.2 | 0.00 | 0.00 | 0.00 | 20 | 1020.9 |
| 20260508052653 | 10 | 270 | 0.0 | 1.6 | 0.00 | 0.00 | 0.00 | 20 | 1020.9 |
| 20260508052150 | 10 | 246 | 0.0 | 3.2 | 0.00 | 0.00 | 0.00 | 22 | 1021.0 |
| 20260508051646 | 9 | 192 | 1.6 | 3.2 | 0.00 | 0.00 | 0.00 | 22 | 1020.8 |
| 20260508051142 | 10 | 161 | 1.6 | 1.6 | 0.00 | 0.00 | 0.00 | 22 | 1020.8 |
| 20260508050638 | 9 | 123 | 1.6 | 3.2 | 0.00 | 0.00 | 0.00 | 22 | 1020.9 |
| 20260508050136 | 10 | 102 | 3.2 | 3.2 | 0.00 | 0.00 | 0.00 | 22 | 1020.8 |
| 20260508045631 | 10 | 117 | 1.6 | 3.2 | 0.00 | 0.00 | 0.00 | 22 | 1020.9 |
| 20260508045130 | 10 | 110 | 1.6 | 3.2 | 0.00 | 0.00 | 0.00 | 22 | 1021.1 |
| 20260508044626 | 10 | 218 | 1.6 | 3.2 | 0.00 | 0.00 | 0.00 | 22 | 1020.9 |
| 20260508044123 | 10 | 169 | 1.6 | 3.2 | 0.00 | 0.00 | 0.00 | 22 | 1020.9 |
| 20260508043619 | 10 | 125 | 1.6 | 1.6 | 0.00 | 0.00 | 0.00 | 22 | 1020.9 |
| 20260508043117 | 10 | 134 | 3.2 | 3.2 | 0.00 | 0.00 | 0.00 | 22 | 1020.7 |
| 20260508042613 | 10 | 148 | 1.6 | 1.6 | 0.00 | 0.00 | 0.00 | 23 | 1020.9 |
| 20260508042111 | 10 | 128 | 3.2 | 3.2 | 0.00 | 0.00 | 0.00 | 22 | 1021.0 |
| 20260508041607 | 10 | 193 | 1.6 | 1.6 | 0.00 | 0.00 | 0.00 | 22 | 1021.0 |
| 20260508041103 | 11 | 197 | 1.6 | 3.2 | 0.00 | 0.00 | 0.00 | 22 | 1021.0 |
| 20260508040600 | 11 | 216 | 0.0 | 1.6 | 0.00 | 0.00 | 0.00 | 20 | 1020.9 |
| 20260508040058 | 12 | 242 | 0.0 | 0.0 | 0.00 | 0.00 | 0.00 | 20 | 1020.9 |
| 20260508035555 | 12 | 287 | 0.0 | 1.6 | 0.00 | 0.00 | 0.00 | 20 | 1020.8 |
| 20260508035052 | 12 | 286 | 3.2 | 3.2 | 0.00 | 0.00 | 0.00 | 20 | 1021.0 |
| 20260508034549 | 12 | 284 | 1.6 | 3.2 | 0.00 | 0.00 | 0.00 | 20 | 1020.5 |
| 20260508034046 | 12 | 253 | 1.6 | 3.2 | 0.00 | 0.00 | 0.00 | 19 | 1020.7 |
| 20260508033544 | 12 | 231 | 1.6 | 3.2 | 0.00 | 0.00 | 0.00 | 18 | 1020.5 |
| 20260508033042 | 12 | 240 | 1.6 | 3.2 | 0.00 | 0.00 | 0.00 | 18 | 1020.3 |
| 20260508032538 | 12 | 255 | 0.0 | 1.6 | 0.00 | 0.00 | 0.00 | 18 | 1020.4 |
| 20260508032036 | 12 | 257 | 4.8 | 9.7 | 0.00 | 0.00 | 0.00 | 18 | 1020.3 |
| 20260508031533 | 12 | 231 | 1.6 | 3.2 | 0.00 | 0.00 | 0.00 | 17 | 1020.0 |
| 20260508031028 | 13 | 211 | 3.2 | 3.2 | 0.00 | 0.00 | 0.00 | 17 | 1020.2 |
| 20260508030525 | 13 | 255 | 1.6 | 4.8 | 0.00 | 0.00 | 0.00 | 17 | 1019.9 |
| 20260508030024 | 13 | 242 | 3.2 | 8.0 | 0.00 | 0.00 | 0.00 | 16 | 1019.7 |
| 20260508025519 | 13 | 260 | 3.2 | 8.0 | 0.00 | 0.00 | 0.00 | 16 | 1019.8 |
| 20260508025016 | 13 | 240 | 4.8 | 9.7 | 0.00 | 0.00 | 0.00 | 16 | 1019.8 |
| 20260508024512 | 14 | 260 | 3.2 | 4.8 | 0.00 | 0.00 | 0.00 | 15 | 1019.7 |
| 20260508024009 | 14 | 208 | 1.6 | 4.8 | 0.00 | 0.00 | 0.00 | 15 | 1019.4 |
| 20260508023506 | 15 | 275 | 4.8 | 11.3 | 0.00 | 0.00 | 0.00 | 15 | 1019.5 |
| 20260508023003 | 15 | 217 | 4.8 | 12.9 | 0.00 | 0.00 | 0.00 | 14 | 1019.4 |
| 20260508022459 | 15 | 220 | 8.0 | 9.7 | 0.00 | 0.00 | 0.00 | 14 | 1019.3 |
| 20260508021955 | 15 | 198 | 3.2 | 9.7 | 0.00 | 0.00 | 0.00 | 14 | 1019.3 |
| 20260508021452 | 15 | 233 | 3.2 | 9.7 | 0.00 | 0.00 | 0.00 | 14 | 1019.2 |
| 20260508020948 | 16 | 201 | 4.8 | 9.7 | 0.00 | 0.00 | 0.00 | 14 | 1019.2 |
| 20260508020446 | 16 | 230 | 6.4 | 11.3 | 0.00 | 0.00 | 0.00 | 14 | 1018.9 |
| 20260508015942 | 16 | 208 | 4.8 | 11.3 | 0.00 | 0.00 | 0.00 | 14 | 1019.2 |
| 20260508015440 | 16 | 195 | 8.0 | 11.3 | 0.00 | 0.00 | 0.00 | 13 | 1019.2 |
| 20260508014937 | 17 | 221 | 3.2 | 12.9 | 0.00 | 0.00 | 0.00 | 13 | 1019.2 |
| 20260508014434 | 17 | 187 | 6.4 | 9.7 | 0.00 | 0.00 | 0.00 | 13 | 1019.2 |
| 20260508013929 | 17 | 218 | 11.3 | 12.9 | 0.00 | 0.00 | 0.00 | 13 | 1018.9 |
| 20260508013426 | 17 | 192 | 8.0 | 11.3 | 0.00 | 0.00 | 0.00 | 13 | 1019.2 |
| 20260508012923 | 18 | 229 | 4.8 | 9.7 | 0.00 | 0.00 | 0.00 | 13 | 1019.3 |
| 20260508012420 | 18 | 210 | 6.4 | 12.9 | 0.00 | 0.00 | 0.00 | 13 | 1019.1 |
| 20260508011918 | 18 | 228 | 8.0 | 14.5 | 0.00 | 0.00 | 0.00 | 13 | 1018.9 |
| 20260508011415 | 18 | 192 | 4.8 | 12.9 | 0.00 | 0.00 | 0.00 | 13 | 1019.2 |
| 20260508010912 | 18 | 203 | 8.0 | 22.5 | 0.00 | 0.00 | 0.00 | 13 | 1019.1 |
| 20260508010410 | 18 | 203 | 12.9 | 17.7 | 0.00 | 0.00 | 0.00 | 13 | 1019.1 |
| 20260508005907 | 18 | 249 | 3.2 | 4.8 | 0.00 | 0.00 | 0.00 | 13 | 1019.2 |
| 20260508005403 | 19 | 237 | 11.3 | 14.5 | 0.00 | 0.00 | 0.00 | 13 | 1019.2 |
| 20260508004900 | 20 | 219 | 9.7 | 14.5 | 0.00 | 0.00 | 0.00 | 13 | 1019.1 |
| 20260508004356 | 20 | 241 | 6.4 | 14.5 | 0.00 | 0.00 | 0.00 | 13 | 1019.1 |
| 20260508003853 | 20 | 282 | 1.6 | 8.0 | 0.00 | 0.00 | 0.00 | 13 | 1019.3 |
| 20260508003349 | 20 | 280 | 9.7 | 12.9 | 0.00 | 0.00 | 0.00 | 12 | 1019.1 |
| 20260508002847 | 20 | 229 | 3.2 | 9.7 | 0.00 | 0.00 | 0.00 | 12 | 1019.4 |
| 20260508002343 | 20 | 208 | 8.0 | 9.7 | 0.00 | 0.00 | 0.00 | 13 | 1019.2 |
| 20260508001840 | 20 | 268 | 0.0 | 3.2 | 0.00 | 0.00 | 0.00 | 13 | 1019.2 |
| 20260508001336 | 20 | 242 | 3.2 | 8.0 | 0.00 | 0.00 | 0.00 | 13 | 1019.5 |
| 20260508000832 | 20 | 269 | 1.6 | 9.7 | 0.00 | 0.00 | 0.00 | 13 | 1019.4 |
| 20260508000328 | 20 | 258 | 4.8 | 9.7 | 0.00 | 0.00 | 0.00 | 13 | 1019.3 |
| 20260507235825 | 20 | 249 | 4.8 | 9.7 | 0.00 | 0.00 | 0.00 | 13 | 1019.4 |
| 20260507235323 | 20 | 213 | 11.3 | 14.5 | 0.00 | 0.00 | 0.00 | 14 | 1019.4 |
| 20260507234820 | 20 | 227 | 4.8 | 9.7 | 0.00 | 0.00 | 0.00 | 14 | 1019.5 |
| 20260507234316 | 20 | 307 | 6.4 | 11.3 | 0.00 | 0.00 | 0.00 | 15 | 1019.5 |
| 20260507233812 | 20 | 259 | 8.0 | 17.7 | 0.00 | 0.00 | 0.00 | 15 | 1019.4 |
| 20260507233310 | 20 | 270 | 3.2 | 9.7 | 0.00 | 0.00 | 0.00 | 16 | 1019.3 |
| 20260507232808 | 20 | 232 | 6.4 | 9.7 | 0.00 | 0.00 | 0.00 | 16 | 1019.3 |
| 20260507232306 | 20 | 249 | 6.4 | 12.9 | 0.00 | 0.00 | 0.00 | 16 | 1019.4 |
| 20260507231801 | 20 | 233 | 4.8 | 11.3 | 0.00 | 0.00 | 0.00 | 17 | 1019.5 |
| 20260507231258 | 19 | 210 | 11.3 | 11.3 | 0.00 | 0.00 | 0.00 | 16 | 1019.4 |
| 20260507230754 | 20 | 260 | 9.7 | 14.5 | 0.00 | 0.00 | 0.00 | 17 | 1019.5 |
| 20260507230252 | 20 | 253 | 8.0 | 9.7 | 0.00 | 0.00 | 0.00 | 17 | 1019.8 |
| 20260507225752 | 20 | 222 | 8.0 | 20.9 | 0.00 | 0.00 | 0.00 | 18 | 1019.7 |
| 20260507225248 | 20 | 270 | 6.4 | 9.7 | 0.00 | 0.00 | 0.00 | 19 | 1019.5 |
| 20260507224744 | 20 | 297 | 8.0 | 11.3 | 0.00 | 0.00 | 0.00 | 20 | 1019.7 |
| 20260507224241 | 20 | 304 | 4.8 | 8.0 | 0.00 | 0.00 | 0.00 | 19 | 1019.7 |
| 20260507223737 | 19 | 290 | 8.0 | 11.3 | 0.00 | 0.00 | 0.00 | 20 | 1019.7 |
| 20260507223234 | 19 | 222 | 6.4 | 12.9 | 0.00 | 0.00 | 0.00 | 20 | 1019.7 |
| 20260507222731 | 19 | 271 | 4.8 | 14.5 | 0.00 | 0.00 | 0.00 | 21 | 1019.7 |
| 20260507222227 | 19 | 261 | 4.8 | 8.0 | 0.00 | 0.00 | 0.00 | 21 | 1019.7 |
| 20260507221724 | 20 | 300 | 6.4 | 12.9 | 0.00 | 0.00 | 0.00 | 21 | 1019.9 |
| 20260507221220 | 20 | 335 | 4.8 | 8.0 | 0.00 | 0.00 | 0.00 | 19 | 1020.0 |
| 20260507220717 | 19 | 271 | 9.7 | 11.3 | 0.00 | 0.00 | 0.00 | 19 | 1020.2 |
| 20260507220215 | 20 | 248 | 4.8 | 9.7 | 0.00 | 0.00 | 0.00 | 19 | 1019.9 |
| 20260507215711 | 20 | 244 | 6.4 | 12.9 | 0.00 | 0.00 | 0.00 | 19 | 1020.3 |
| 20260507215209 | 18 | 239 | 6.4 | 8.0 | 0.00 | 0.00 | 0.00 | 19 | 1020.3 |
| 20260507214706 | 18 | 305 | 6.4 | 9.7 | 0.00 | 0.00 | 0.00 | 19 | 1020.4 |
| 20260507214203 | 19 | 250 | 9.7 | 12.9 | 0.00 | 0.00 | 0.00 | 18 | 1020.4 |
| 20260507213658 | 19 | 280 | 8.0 | 14.5 | 0.00 | 0.00 | 0.00 | 18 | 1020.7 |
| 20260507213155 | 19 | 330 | 4.8 | 8.0 | 0.00 | 0.00 | 0.00 | 18 | 1020.4 |
| 20260507212651 | 18 | 331 | 4.8 | 8.0 | 0.00 | 0.00 | 0.00 | 17 | 1020.7 |
| 20260507212148 | 19 | 309 | 9.7 | 12.9 | 0.00 | 0.00 | 0.00 | 17 | 1020.8 |
| 20260507211645 | 18 | 312 | 3.2 | 9.7 | 0.00 | 0.00 | 0.00 | 16 | 1020.8 |
| 20260507211140 | 18 | 224 | 8.0 | 12.9 | 0.00 | 0.00 | 0.00 | 15 | 1020.9 |
| 20260507210639 | 18 | 3 | 6.4 | 17.7 | 0.00 | 0.00 | 0.00 | 15 | 1021.0 |
| 20260507210135 | 18 | 4 | 12.9 | 16.1 | 0.00 | 0.00 | 0.00 | 14 | 1021.0 |
| 20260507205632 | 18 | 13 | 4.8 | 9.7 | 0.00 | 0.00 | 0.00 | 15 | 1021.1 |
| 20260507205128 | 17 | 30 | 8.0 | 14.5 | 0.00 | 0.00 | 0.00 | 14 | 1021.3 |
| 20260507204624 | 18 | 351 | 6.4 | 14.5 | 0.00 | 0.00 | 0.00 | 13 | 1021.5 |
| 20260507204122 | 19 | 335 | 4.8 | 9.7 | 0.00 | 0.00 | 0.00 | 12 | 1021.1 |
| 20260507203620 | 17 | 272 | 3.2 | 3.2 | 0.00 | 0.00 | 0.00 | 12 | 1021.5 |
| 20260507203117 | 17 | 55 | 4.8 | 9.7 | 0.00 | 0.00 | 0.00 | 12 | 1021.6 |
| 20260507202613 | 18 | 359 | 8.0 | 20.9 | 0.00 | 0.00 | 0.00 | 10 | 1021.8 |
| 20260507202109 | 18 | 282 | 12.9 | 20.9 | 0.00 | 0.00 | 0.00 | 11 | 1021.8 |
| 20260507201604 | 18 | 15 | 11.3 | 12.9 | 0.00 | 0.00 | 0.00 | 10 | 1021.8 |
| 20260507201102 | 17 | 263 | 3.2 | 8.0 | 0.00 | 0.00 | 0.00 | 12 | 1021.8 |
| 20260507200557 | 18 | 264 | 3.2 | 17.7 | 0.00 | 0.00 | 0.00 | 13 | 1021.9 |
| 20260507200053 | 18 | 305 | 9.7 | 14.5 | 0.00 | 0.00 | 0.00 | 11 | 1021.6 |
| 20260507195550 | 17 | 308 | 4.8 | 12.9 | 0.00 | 0.00 | 0.00 | 12 | 1021.8 |
| 20260507195048 | 17 | 319 | 9.7 | 14.5 | 0.00 | 0.00 | 0.00 | 13 | 1021.9 |
| 20260507194544 | 16 | 353 | 3.2 | 9.7 | 0.00 | 0.00 | 0.00 | 13 | 1021.9 |
| 20260507194040 | 18 | 287 | 4.8 | 16.1 | 0.00 | 0.00 | 0.00 | 14 | 1021.9 |
| 20260507193537 | 17 | 271 | 3.2 | 9.7 | 0.00 | 0.00 | 0.00 | 13 | 1022.1 |
| 20260507193034 | 16 | 11 | 9.7 | 12.9 | 0.00 | 0.00 | 0.00 | 14 | 1022.3 |
| 20260507192530 | 17 | 338 | 9.7 | 14.5 | 0.00 | 0.00 | 0.00 | 12 | 1022.1 |
| 20260507192027 | 17 | 257 | 11.3 | 16.1 | 0.00 | 0.00 | 0.00 | 13 | 1022.1 |
| 20260507191523 | 17 | 331 | 6.4 | 14.5 | 0.00 | 0.00 | 0.00 | 16 | 1022.3 |
| 20260507191020 | 16 | 351 | 6.4 | 14.5 | 0.00 | 0.00 | 0.00 | 16 | 1022.4 |
| 20260507190517 | 16 | 11 | 8.0 | 11.3 | 0.00 | 0.00 | 0.00 | 13 | 1022.8 |
| 20260507190016 | 16 | 352 | 8.0 | 16.1 | 0.00 | 0.00 | 0.00 | 17 | 1022.3 |
| 20260507185514 | 16 | 6 | 11.3 | 20.9 | 0.00 | 0.00 | 0.00 | 18 | 1022.4 |
| 20260507185010 | 16 | 10 | 11.3 | 16.1 | 0.00 | 0.00 | 0.00 | 20 | 1022.4 |
| 20260507184508 | 16 | 347 | 11.3 | 20.9 | 0.00 | 0.00 | 0.00 | 19 | 1022.5 |
| 20260507184006 | 16 | 84 | 9.7 | 24.1 | 0.00 | 0.00 | 0.00 | 16 | 1022.6 |
| 20260507183502 | 15 | 337 | 6.4 | 20.9 | 0.00 | 0.00 | 0.00 | 22 | 1022.8 |
| 20260507182959 | 15 | 280 | 12.9 | 17.7 | 0.00 | 0.00 | 0.00 | 18 | 1022.9 |
| 20260507182455 | 15 | 38 | 9.7 | 14.5 | 0.00 | 0.00 | 0.00 | 21 | 1022.9 |
| 20260507181951 | 15 | 359 | 8.0 | 14.5 | 0.00 | 0.00 | 0.00 | 22 | 1022.9 |
| 20260507181448 | 15 | 283 | 4.8 | 20.9 | 0.00 | 0.00 | 0.00 | 23 | 1022.9 |
| 20260507180944 | 15 | 344 | 6.4 | 20.9 | 0.00 | 0.00 | 0.00 | 24 | 1023.0 |
| 20260507180441 | 15 | 14 | 14.5 | 20.9 | 0.00 | 0.00 | 0.00 | 21 | 1023.2 |
| 20260507175937 | 13 | 345 | 8.0 | 22.5 | 0.00 | 0.00 | 0.00 | 26 | 1023.2 |
| 20260507175434 | 15 | 357 | 16.1 | 22.5 | 0.00 | 0.00 | 0.00 | 25 | 1023.2 |
| 20260507174932 | 14 | 79 | 11.3 | 22.5 | 0.00 | 0.00 | 0.00 | 27 | 1023.2 |
| 20260507174429 | 13 | 357 | 9.7 | 24.1 | 0.00 | 0.00 | 0.00 | 26 | 1023.5 |
| 20260507173926 | 13 | 12 | 12.9 | 20.9 | 0.00 | 0.00 | 0.00 | 29 | 1023.5 |
| 20260507173423 | 12 | 276 | 9.7 | 14.5 | 0.00 | 0.00 | 0.00 | 30 | 1023.4 |
| 20260507172920 | 13 | 339 | 12.9 | 20.9 | 0.00 | 0.00 | 0.00 | 29 | 1023.7 |
| 20260507172416 | 12 | 335 | 14.5 | 20.9 | 0.00 | 0.00 | 0.00 | 30 | 1023.6 |
| 20260507171912 | 12 | 346 | 4.8 | 22.5 | 0.00 | 0.00 | 0.00 | 33 | 1023.7 |
| 20260507171409 | 12 | 22 | 14.5 | 22.5 | 0.00 | 0.00 | 0.00 | 33 | 1023.9 |
| 20260507170906 | 12 | 48 | 14.5 | 24.1 | 0.00 | 0.00 | 0.00 | 33 | 1023.6 |
| 20260507170402 | 11 | 351 | 20.9 | 29.0 | 0.00 | 0.00 | 0.00 | 34 | 1023.7 |
| 20260507165859 | 11 | 337 | 14.5 | 27.4 | 0.00 | 0.00 | 0.00 | 35 | 1023.9 |
| 20260507165355 | 11 | 6 | 19.3 | 29.0 | 0.00 | 0.00 | 0.00 | 37 | 1024.1 |
| 20260507164851 | 11 | 3 | 14.5 | 24.1 | 0.00 | 0.00 | 0.00 | 39 | 1024.2 |
| 20260507164348 | 10 | 0 | 16.1 | 27.4 | 0.00 | 0.00 | 0.00 | 40 | 1023.9 |
| 20260507163845 | 10 | 28 | 11.3 | 22.5 | 0.00 | 0.00 | 0.00 | 42 | 1024.0 |
| 20260507163343 | 10 | 8 | 14.5 | 22.5 | 0.00 | 0.00 | 0.00 | 47 | 1024.0 |
| 20260507162839 | 9 | 21 | 11.3 | 16.1 | 0.00 | 0.00 | 0.00 | 48 | 1024.1 |
| 20260507162334 | 8 | 354 | 17.7 | 25.7 | 0.00 | 0.00 | 0.00 | 49 | 1024.1 |
| 20260507161832 | 8 | 302 | 14.5 | 25.7 | 0.00 | 0.00 | 0.00 | 51 | 1024.2 |
| 20260507161328 | 8 | 334 | 19.3 | 25.7 | 0.00 | 0.00 | 0.00 | 48 | 1024.0 |
| 20260507160825 | 8 | 323 | 8.0 | 24.1 | 0.00 | 0.00 | 0.00 | 50 | 1024.2 |
| 20260507160321 | 8 | 30 | 14.5 | 27.4 | 0.00 | 0.00 | 0.00 | 51 | 1024.5 |
| 20260507155817 | 7 | 33 | 16.1 | 22.5 | 0.00 | 0.00 | 0.00 | 54 | 1024.5 |
| 20260507155313 | 7 | 45 | 14.5 | 24.1 | 0.00 | 0.00 | 0.00 | 54 | 1024.4 |
| 20260507154810 | 6 | 283 | 12.9 | 20.9 | 0.00 | 0.00 | 0.00 | 53 | 1024.4 |
| 20260507154307 | 6 | 311 | 11.3 | 24.1 | 0.00 | 0.00 | 0.00 | 55 | 1024.5 |
| 20260507153804 | 6 | 343 | 14.5 | 20.9 | 0.00 | 0.00 | 0.00 | 54 | 1024.5 |
| 20260507153300 | 6 | 9 | 12.9 | 20.9 | 0.00 | 0.00 | 0.00 | 56 | 1024.7 |
| 20260507152757 | 6 | 35 | 9.7 | 16.1 | 0.00 | 0.00 | 0.00 | 57 | 1024.6 |
| 20260507152253 | 6 | 340 | 8.0 | 16.1 | 0.00 | 0.00 | 0.00 | 59 | 1024.6 |
| 20260507151749 | 6 | 342 | 16.1 | 22.5 | 0.00 | 0.00 | 0.00 | 58 | 1024.7 |
| 20260507151245 | 6 | 329 | 12.9 | 22.5 | 0.00 | 0.00 | 0.00 | 59 | 1024.8 |
| 20260507150743 | 6 | 2 | 11.3 | 14.5 | 0.00 | 0.00 | 0.00 | 58 | 1025.0 |
| 20260507150240 | 6 | 68 | 8.0 | 16.1 | 0.00 | 0.00 | 0.00 | 59 | 1024.7 |
| 20260507145736 | 5 | 58 | 8.0 | 16.1 | 0.00 | 0.00 | 0.00 | 61 | 1024.6 |
| 20260507145232 | 6 | 50 | 6.4 | 12.9 | 0.00 | 0.00 | 0.00 | 62 | 1024.8 |
| 20260507144729 | 5 | 300 | 6.4 | 12.9 | 0.00 | 0.00 | 0.00 | 64 | 1024.7 |
| 20260507144227 | 5 | 299 | 3.2 | 8.0 | 0.00 | 0.00 | 0.00 | 65 | 1024.8 |
| 20260507143723 | 5 | 315 | 6.4 | 14.5 | 0.00 | 0.00 | 0.00 | 65 | 1025.0 |
| 20260507143220 | 5 | 344 | 6.4 | 11.3 | 0.00 | 0.00 | 0.00 | 68 | 1025.1 |
| 20260507142716 | 5 | 357 | 8.0 | 12.9 | 0.00 | 0.00 | 0.00 | 68 | 1025.0 |
| 20260507142213 | 4 | 26 | 9.7 | 14.5 | 0.00 | 0.00 | 0.00 | 70 | 1025.0 |
| 20260507141709 | 5 | 351 | 6.4 | 11.3 | 0.00 | 0.00 | 0.00 | 71 | 1025.1 |
| 20260507141206 | 4 | 301 | 8.0 | 12.9 | 0.00 | 0.00 | 0.00 | 72 | 1025.2 |
| 20260507140702 | 4 | 338 | 4.8 | 12.9 | 0.00 | 0.00 | 0.00 | 74 | 1025.1 |
| 20260507140200 | 4 | 67 | 6.4 | 12.9 | 0.00 | 0.00 | 0.00 | 74 | 1025.1 |
| 20260507135657 | 3 | 11 | 4.8 | 8.0 | 0.00 | 0.00 | 0.00 | 77 | 1025.2 |
| 20260507135154 | 3 | 328 | 1.6 | 3.2 | 0.00 | 0.00 | 0.00 | 78 | 1025.5 |
| 20260507134650 | 3 | 7 | 4.8 | 8.0 | 0.00 | 0.00 | 0.00 | 79 | 1025.1 |
| 20260507134147 | 3 | 266 | 3.2 | 4.8 | 0.00 | 0.00 | 0.00 | 81 | 1025.1 |
| 20260507133643 | 2 | 20 | 4.8 | 8.0 | 0.00 | 0.00 | 0.00 | 81 | 1025.3 |
| 20260507133140 | 2 | 0 | 3.2 | 4.8 | 0.00 | 0.00 | 0.00 | 82 | 1025.0 |
| 20260507132638 | 2 | 335 | 3.2 | 4.8 | 0.00 | 0.00 | 0.00 | 82 | 1025.2 |
| 20260507132133 | 2 | 299 | 1.6 | 4.8 | 0.00 | 0.00 | 0.00 | 83 | 1025.0 |
| 20260507131630 | 2 | 297 | 1.6 | 3.2 | 0.00 | 0.00 | 0.00 | 83 | 1025.1 |
| 20260507131128 | 2 | 277 | 1.6 | 3.2 | 0.00 | 0.00 | 0.00 | 84 | 1025.1 |
| 20260507130624 | 1 | 322 | 1.6 | 3.2 | 0.00 | 0.00 | 0.00 | 85 | 1025.1 |
| 20260507130122 | 1 | 351 | 1.6 | 3.2 | 0.00 | 0.00 | 0.00 | 86 | 1025.2 |
| 20260507125621 | 1 | 55 | 1.6 | 1.6 | 0.00 | 0.00 | 0.00 | 88 | 1025.2 |
| 20260507125118 | 0 | 316 | 1.6 | 1.6 | 0.00 | 0.00 | 0.00 | 89 | 1025.2 |
| 20260507124614 | 0 | 279 | 1.6 | 3.2 | 0.00 | 0.00 | 0.00 | 91 | 1025.1 |
| 20260507124112 | 0 | 268 | 1.6 | 1.6 | 0.00 | 0.00 | 0.00 | 92 | 1025.2 |
| 20260507123610 | 0 | 336 | 1.6 | 3.2 | 0.00 | 0.00 | 0.00 | 92 | 1025.1 |
| 20260507123107 | 0 | 318 | 1.6 | 3.2 | 0.00 | 0.00 | 0.00 | 92 | 1025.1 |
| 20260507122602 | 0 | 330 | 1.6 | 3.2 | 0.00 | 0.00 | 0.00 | 92 | 1025.2 |
| 20260507122058 | 0 | 345 | 1.6 | 3.2 | 0.00 | 0.00 | 0.00 | 92 | 1025.1 |
| 20260507121554 | 0 | 11 | 1.6 | 3.2 | 0.00 | 0.00 | 0.00 | 92 | 1025.2 |
| 20260507121050 | 0 | 44 | 1.6 | 3.2 | 0.00 | 0.00 | 0.00 | 92 | 1025.2 |
| 20260507120546 | 0 | 26 | 1.6 | 3.2 | 0.00 | 0.00 | 0.00 | 92 | 1025.2 |
| 20260507120043 | 0 | 335 | 1.6 | 3.2 | 0.00 | 0.00 | 0.00 | 92 | 1025.2 |
| 20260507115539 | 0 | 313 | 0.0 | 1.6 | 0.00 | 0.00 | 0.00 | 92 | 1025.2 |
| 20260507115035 | -1 | 321 | 0.0 | 3.2 | 0.00 | 0.00 | 0.00 | 92 | 1025.0 |
| 20260507114531 | -1 | 282 | 0.0 | 1.6 | 0.00 | 0.00 | 0.00 | 92 | 1025.1 |
| 20260507114029 | -1 | 284 | 1.6 | 3.2 | 0.00 | 0.00 | 0.00 | 91 | 1025.1 |
| 20260507113526 | -1 | 334 | 1.6 | 1.6 | 0.00 | 0.00 | 0.00 | 91 | 1025.2 |
| 20260507113023 | -1 | 309 | 0.0 | 1.6 | 0.00 | 0.00 | 0.00 | 91 | 1025.1 |
| 20260507112521 | -1 | 345 | 0.0 | 1.6 | 0.00 | 0.00 | 0.00 | 91 | 1025.2 |
| 20260507112017 | -1 | 42 | 1.6 | 1.6 | 0.00 | 0.00 | 0.00 | 90 | 1025.1 |
| 20260507111515 | -1 | 232 | 0.0 | 0.0 | 0.00 | 0.00 | 0.00 | 90 | 1025.1 |
| 20260507111011 | -1 | 258 | 0.0 | 0.0 | 0.00 | 0.00 | 0.00 | 90 | 1024.8 |
| 20260507110508 | -1 | 277 | 0.0 | 1.6 | 0.00 | 0.00 | 0.00 | 89 | 1024.8 |
| 20260507110004 | 0 | 240 | 0.0 | 0.0 | 0.00 | 0.00 | 0.00 | 89 | 1024.8 |
| 20260507105501 | 0 | 13 | 1.6 | 1.6 | 0.00 | 0.00 | 0.00 | 88 | 1025.0 |
| 20260507104957 | 0 | 234 | 0.0 | 0.0 | 0.00 | 0.00 | 0.00 | 88 | 1024.8 |
| 20260507104454 | 0 | 229 | 0.0 | 0.0 | 0.00 | 0.00 | 0.00 | 88 | 1025.1 |
| 20260507103950 | 0 | 231 | 0.0 | 0.0 | 0.00 | 0.00 | 0.00 | 87 | 1024.8 |
| 20260507103447 | 0 | 315 | 0.0 | 1.6 | 0.00 | 0.00 | 0.00 | 87 | 1025.1 |
| 20260507102943 | 0 | 295 | 0.0 | 0.0 | 0.00 | 0.00 | 0.00 | 87 | 1025.1 |
| 20260507102440 | 0 | 250 | 0.0 | 0.0 | 0.00 | 0.00 | 0.00 | 86 | 1025.0 |
| 20260507101937 | 0 | 317 | 0.0 | 1.6 | 0.00 | 0.00 | 0.00 | 85 | 1025.0 |
| 20260507101432 | 0 | 224 | 1.6 | 1.6 | 0.00 | 0.00 | 0.00 | 86 | 1025.1 |
| 20260507100928 | 0 | 288 | 0.0 | 1.6 | 0.00 | 0.00 | 0.00 | 86 | 1025.0 |
| 20260507100426 | 0 | 171 | 1.6 | 1.6 | 0.00 | 0.00 | 0.00 | 86 | 1025.0 |
| 20260507095924 | 0 | 238 | 0.0 | 1.6 | 0.00 | 0.00 | 0.00 | 86 | 1025.0 |
| 20260507095421 | 0 | 224 | 1.6 | 1.6 | 0.00 | 0.00 | 0.00 | 86 | 1025.0 |
| 20260507094918 | 0 | 254 | 0.0 | 0.0 | 0.00 | 0.00 | 0.00 | 85 | 1025.2 |
| 20260507094414 | 0 | 213 | 1.6 | 1.6 | 0.00 | 0.00 | 0.00 | 84 | 1024.8 |
| 20260507093911 | 0 | 236 | 0.0 | 0.0 | 0.00 | 0.00 | 0.00 | 84 | 1025.0 |
| 20260507093409 | 0 | 206 | 1.6 | 1.6 | 0.00 | 0.00 | 0.00 | 83 | 1025.2 |
| 20260507092907 | 0 | 206 | 0.0 | 0.0 | 0.00 | 0.00 | 0.00 | 83 | 1025.1 |
| 20260507092403 | 0 | 234 | 0.0 | 1.6 | 0.00 | 0.00 | 0.00 | 82 | 1025.1 |
| 20260507091900 | 0 | 178 | 1.6 | 1.6 | 0.00 | 0.00 | 0.00 | 82 | 1025.0 |
| 20260507091356 | 0 | 191 | 1.6 | 1.6 | 0.00 | 0.00 | 0.00 | 82 | 1025.2 |
| 20260507090852 | 0 | 125 | 1.6 | 3.2 | 0.00 | 0.00 | 0.00 | 83 | 1024.8 |
| 20260507090348 | 0 | 257 | 0.0 | 0.0 | 0.00 | 0.00 | 0.00 | 82 | 1025.1 |
| 20260507085845 | 0 | 200 | 0.0 | 3.2 | 0.00 | 0.00 | 0.00 | 82 | 1025.0 |
| 20260507085342 | 0 | 185 | 1.6 | 1.6 | 0.00 | 0.00 | 0.00 | 82 | 1025.1 |
| 20260507084840 | 0 | 224 | 0.0 | 3.2 | 0.00 | 0.00 | 0.00 | 86 | 1025.0 |
| 20260507084336 | 0 | 257 | 0.0 | 0.0 | 0.00 | 0.00 | 0.00 | 86 | 1024.7 |
| 20260507083834 | 0 | 211 | 1.6 | 1.6 | 0.00 | 0.00 | 0.00 | 87 | 1024.7 |
| 20260507083330 | 0 | 234 | 0.0 | 0.0 | 0.00 | 0.00 | 0.00 | 87 | 1024.8 |
| 20260507082826 | 0 | 248 | 0.0 | 0.0 | 0.00 | 0.00 | 0.00 | 86 | 1024.8 |
| 20260507082321 | 0 | 285 | 0.0 | 1.6 | 0.00 | 0.00 | 0.00 | 85 | 1024.8 |
| 20260507081819 | 1 | 310 | 0.0 | 1.6 | 0.00 | 0.00 | 0.00 | 84 | 1024.7 |
| 20260507081315 | 1 | 263 | 0.0 | 0.0 | 0.00 | 0.00 | 0.00 | 83 | 1024.8 |
| 20260507080812 | 1 | 141 | 1.6 | 3.2 | 0.00 | 0.00 | 0.00 | 83 | 1024.6 |
| 20260507080308 | 1 | 93 | 1.6 | 3.2 | 0.00 | 0.00 | 0.00 | 84 | 1024.6 |
| 20260507075803 | 1 | 111 | 1.6 | 3.2 | 0.00 | 0.00 | 0.00 | 84 | 1024.6 |
| 20260507075259 | 1 | 94 | 1.6 | 3.2 | 0.00 | 0.00 | 0.00 | 84 | 1024.7 |
| 20260507074756 | 1 | 358 | 1.6 | 3.2 | 0.00 | 0.00 | 0.00 | 85 | 1024.8 |
| 20260507074255 | 1 | 129 | 3.2 | 8.0 | 0.00 | 0.00 | 0.00 | 86 | 1024.7 |
| 20260507073751 | 1 | 155 | 3.2 | 3.2 | 0.00 | 0.00 | 0.00 | 84 | 1024.8 |
| 20260507073247 | 1 | 80 | 1.6 | 3.2 | 0.00 | 0.00 | 0.00 | 83 | 1024.5 |
| 20260507072745 | 1 | 53 | 3.2 | 4.8 | 0.00 | 0.00 | 0.00 | 83 | 1024.5 |
| 20260507072242 | 2 | 38 | 1.6 | 4.8 | 0.00 | 0.00 | 0.00 | 82 | 1024.6 |
| 20260507071740 | 2 | 346 | 1.6 | 3.2 | 0.00 | 0.00 | 0.00 | 82 | 1024.4 |
| 20260507071236 | 2 | 28 | 3.2 | 4.8 | 0.00 | 0.00 | 0.00 | 82 | 1024.2 |
| 20260507070733 | 2 | 58 | 3.2 | 4.8 | 0.00 | 0.00 | 0.00 | 82 | 1024.4 |
| 20260507070230 | 2 | 35 | 3.2 | 4.8 | 0.00 | 0.00 | 0.00 | 82 | 1024.4 |
| 20260507065726 | 2 | 307 | 3.2 | 8.0 | 0.00 | 0.00 | 0.00 | 83 | 1024.4 |
| 20260507065223 | 2 | 293 | 3.2 | 8.0 | 0.00 | 0.00 | 0.00 | 83 | 1024.2 |
| 20260507064721 | 2 | 12 | 3.2 | 4.8 | 0.00 | 0.00 | 0.00 | 82 | 1024.4 |
| 20260507064220 | 2 | 314 | 3.2 | 8.0 | 0.00 | 0.00 | 0.00 | 82 | 1024.4 |
| 20260507063716 | 2 | 353 | 4.8 | 4.8 | 0.00 | 0.00 | 0.00 | 81 | 1024.1 |
| 20260507063213 | 2 | 47 | 4.8 | 4.8 | 0.00 | 0.00 | 0.00 | 81 | 1024.1 |
| 20260507062710 | 2 | 21 | 4.8 | 8.0 | 0.00 | 0.00 | 0.00 | 81 | 1024.2 |
| 20260507062208 | 2 | 34 | 1.6 | 4.8 | 0.00 | 0.00 | 0.00 | 80 | 1023.9 |
| 20260507061706 | 2 | 358 | 4.8 | 8.0 | 0.00 | 0.00 | 0.00 | 80 | 1024.0 |
| 20260507061203 | 2 | 359 | 1.6 | 3.2 | 0.00 | 0.00 | 0.00 | 80 | 1024.0 |
| 20260507060701 | 2 | 14 | 3.2 | 8.0 | 0.00 | 0.00 | 0.00 | 80 | 1024.1 |
| 20260507060157 | 2 | 14 | 4.8 | 4.8 | 0.00 | 0.00 | 0.00 | 80 | 1024.0 |
| 20260507055653 | 2 | 7 | 4.8 | 4.8 | 0.00 | 0.03 | 0.03 | 80 | 1023.7 |
| 20260507055149 | 2 | 0 | 1.6 | 3.2 | 0.00 | 0.03 | 0.03 | 79 | 1023.9 |